Tracking 19792 objects as of 15-Jul-2019
HD Live streaming from Space Station
objects crossing your sky now

COSMOS 1058

Track COSMOS 1058 now!
10-day predictions
COSMOS 1058 is classified as:


NORAD ID: 11135
Int'l Code: 1978-109H
Perigee: 1,487.2 km
Apogee: 1,544.8 km
Inclination: 74.0 °
Period: 116.2 minutes
Semi major axis: 7887 km
RCS: 0.7109 m2 (medium)
Launch date: December 5, 1978
Source: Commonwealth of Independent States (former USSR) (CIS)
Launch site: PLESETSK MISSILE AND SPACE COMPLEX (PKMTR)
aabbcc
Your satellite tracking list
Your tracking list is empty




NASA's NSSDC Master Catalog

Two Line Element Set (TLE):
1 11135U 78109H   19196.19885448 -.00000020  00000-0 -35044-4 0  9993
2 11135  74.0175  99.0379 0036462   5.7176 106.1810 12.39465948837557
Source of the keplerian elements: AFSPC